Tracking 19969 objects as of 12-Nov-2019
Live streaming from Space Station
objects crossing your sky now
Track the group of recently launched Starlink satellites

FENGYUN 1C DEB

Track FENGYUN 1C DEB now!
10-day predictions


NORAD ID: 31786
Int'l Code: 1999-025CGM
Perigee: 821.2 km
Apogee: 992.3 km
Inclination: 97.7 °
Period: 103.0 minutes
Semi major axis: 7277 km
RCS: 0.0115 m2 (small)
Launch date: May 10, 1999
Source: People's Republic of China (PRC)
Launch site: Taiyaun Space Center, China (TSC)

Note: This is SATELLITE DEBRIS
aabbcc
Your satellite tracking list
Your tracking list is empty




NASA's NSSDC Master Catalog

Two Line Element Set (TLE):
1 31786U 99025CGM 19289.18013976  .00000902  00000-0  61827-3 0  9992
2 31786  97.6970 266.1847 0117543 339.0569  20.5805 13.98330503628972
Source of the keplerian elements: AFSPC